• In Belarus
  • List of Countries
  • For 7 days
  • Water Temperature
  • Weather Map
  • Weather Widgets
  • user-avatar
    Login

    Hourly Weather Delhi

    Today, 26 May, Tuesday

    Time Temperature Precipitation Wind Pressure Humidity
    00:00 +40°C° 0 mm 2 mps 730 mmHg 10%
    01:00 +39°C° 0 mm 1 mps 730 mmHg 10%
    02:00 +39°C° 0 mm 1 mps 729 mmHg 10%
    03:00 +38°C° 0 mm 2 mps 729 mmHg 11%
    04:00 +38°C° 0 mm 3 mps 729 mmHg 11%
    05:00 +38°C° 0 mm 3 mps 730 mmHg 11%
    06:00 +40°C° 0 mm 4 mps 730 mmHg 13%
    07:00 +41°C° 0 mm 5 mps 731 mmHg 14%
    08:00 +44°C° 0 mm 6 mps 731 mmHg 16%
    09:00 +45°C° 0 mm 6 mps 731 mmHg 14%
    10:00 +47°C° 0 mm 6 mps 731 mmHg 12%
    11:00 +49°C° 0 mm 6 mps 731 mmHg 10%
    12:00 +51°C° 0 mm 6 mps 730 mmHg 8%
    13:00 +51°C° 0 mm 6 mps 729 mmHg 7%
    14:00 +52°C° 0 mm 7 mps 729 mmHg 5%
    15:00 +52°C° 0 mm 7 mps 728 mmHg 5%
    16:00 +51°C° 0 mm 7 mps 728 mmHg 5%
    17:00 +51°C° 0 mm 7 mps 727 mmHg 4%
    18:00 +49°C° 0 mm 6 mps 728 mmHg 5%
    19:00 +48°C° 0 mm 5 mps 728 mmHg 5%
    20:00 +47°C° 0 mm 4 mps 729 mmHg 6%
    21:00 +45°C° 0 mm 3 mps 729 mmHg 6%
    22:00 +44°C° 0 mm 3 mps 728 mmHg 7%
    23:00 +43°C° 0 mm 3 mps 728 mmHg 7%

    Tomorrow, 27 May, Wednesday

    Time Temperature Precipitation Wind Pressure Humidity
    00:00 +41°C° 0 mm 2 mps 728 mmHg 7%
    01:00 +40°C° 0 mm 2 mps 728 mmHg 8%
    02:00 +39°C° 0 mm 2 mps 728 mmHg 8%
    03:00 +39°C° 0 mm 3 mps 728 mmHg 10%
    04:00 +38°C° 0 mm 3 mps 728 mmHg 11%
    05:00 +38°C° 0 mm 4 mps 728 mmHg 13%
    06:00 +40°C° 0 mm 4 mps 728 mmHg 16%
    07:00 +41°C° 0 mm 5 mps 729 mmHg 19%
    08:00 +42°C° 0 mm 6 mps 729 mmHg 22%
    09:00 +45°C° 0 mm 5 mps 729 mmHg 18%
    10:00 +47°C° 0 mm 5 mps 729 mmHg 14%
    11:00 +49°C° 0 mm 5 mps 729 mmHg 10%
    12:00 +50°C° 0 mm 4 mps 728 mmHg 8%
    13:00 +50°C° 0 mm 4 mps 728 mmHg 7%
    14:00 +51°C° 0 mm 3 mps 727 mmHg 5%
    15:00 +51°C° 0 mm 4 mps 726 mmHg 5%
    16:00 +51°C° 0 mm 4 mps 726 mmHg 5%
    17:00 +51°C° 0 mm 4 mps 725 mmHg 4%
    18:00 +49°C° 0 mm 4 mps 725 mmHg 5%
    19:00 +47°C° 0 mm 3 mps 726 mmHg 5%
    20:00 +46°C° 0 mm 3 mps 726 mmHg 5%
    21:00 +45°C° 0 mm 3 mps 726 mmHg 6%
    22:00 +44°C° 0 mm 3 mps 726 mmHg 7%
    23:00 +43°C° 0 mm 3 mps 726 mmHg 8%

    Day after tomorrow, 28 May, Thursday

    Time Temperature Precipitation Wind Pressure Humidity
    00:00 +42°C° 0 mm 3 mps 726 mmHg 10%
    01:00 +40°C° 0 mm 2 mps 726 mmHg 11%
    02:00 +39°C° 0 mm 2 mps 726 mmHg 12%
    03:00 +39°C° 0 mm 2 mps 726 mmHg 14%
    04:00 +38°C° 0 mm 2 mps 726 mmHg 16%
    05:00 +38°C° 0 mm 2 mps 727 mmHg 18%
    06:00 +39°C° 0 mm 2 mps 727 mmHg 19%
    07:00 +39°C° 0 mm 2 mps 728 mmHg 19%
    08:00 +40°C° 0 mm 3 mps 729 mmHg 20%
    09:00 +42°C° 0 mm 2 mps 729 mmHg 19%
    10:00 +43°C° 0 mm 2 mps 729 mmHg 17%
    11:00 +46°C° 0 mm 2 mps 729 mmHg 15%
    12:00 +47°C° 0 mm 2 mps 728 mmHg 13%
    13:00 +47°C° 0 mm 1 mps 728 mmHg 11%
    14:00 +48°C° 0 mm 1 mps 727 mmHg 10%
    15:00 +49°C° 0 mm 2 mps 726 mmHg 9%
    16:00 +50°C° 0 mm 3 mps 726 mmHg 8%
    17:00 +50°C° 0 mm 3 mps 725 mmHg 7%
    18:00 +48°C° 0 mm 3 mps 726 mmHg 8%
    19:00 +47°C° 0 mm 2 mps 727 mmHg 8%
    20:00 +44°C° 0 mm 1 mps 727 mmHg 8%
    21:00 +43°C° 0 mm 3 mps 728 mmHg 13%
    22:00 +41°C° 0 mm 5 mps 728 mmHg 18%
    23:00 +38°C° 0 mm 7 mps 729 mmHg 24%

    29 May, Friday

    Time Temperature Precipitation Wind Pressure Humidity
    00:00 +38°C° 0.1 mm 6 mps 729 mmHg 25%
    01:00 +36°C° 0.1 mm 6 mps 729 mmHg 26%
    02:00 +36°C° 0.1 mm 6 mps 729 mmHg 27%
    03:00 +35°C° 0 mm 5 mps 729 mmHg 30%
    04:00 +34°C° 0 mm 5 mps 730 mmHg 32%
    05:00 +33°C° 0 mm 5 mps 730 mmHg 35%
    06:00 +34°C° 0 mm 5 mps 731 mmHg 36%
    07:00 +35°C° 0 mm 5 mps 731 mmHg 37%
    08:00 +36°C° 0 mm 5 mps 732 mmHg 38%
    09:00 +38°C° 0 mm 4 mps 732 mmHg 33%
    10:00 +41°C° 0 mm 4 mps 732 mmHg 29%
    11:00 +42°C° 0 mm 3 mps 732 mmHg 24%
    12:00 +44°C° 0 mm 3 mps 731 mmHg 20%
    13:00 +45°C° 0 mm 3 mps 730 mmHg 16%
    14:00 +47°C° 0 mm 3 mps 730 mmHg 12%
    15:00 +47°C° 0 mm 3 mps 729 mmHg 11%
    16:00 +47°C° 0 mm 3 mps 728 mmHg 9%
    17:00 +47°C° 0 mm 3 mps 728 mmHg 8%
    18:00 +46°C° 0 mm 3 mps 728 mmHg 9%
    19:00 +45°C° 0 mm 3 mps 728 mmHg 10%
    20:00 +44°C° 0 mm 3 mps 729 mmHg 12%
    21:00 +43°C° 0.1 mm 3 mps 729 mmHg 14%
    22:00 +42°C° 0.1 mm 3 mps 730 mmHg 16%
    23:00 +40°C° 0.1 mm 3 mps 731 mmHg 18%

    30 May, Saturday

    Time Temperature Precipitation Wind Pressure Humidity
    00:00 +38°C° 0.3 mm 3 mps 731 mmHg 23%
    01:00 +37°C° 0.3 mm 4 mps 731 mmHg 27%
    02:00 +35°C° 0.3 mm 4 mps 731 mmHg 31%
    03:00 +35°C° 0 mm 4 mps 731 mmHg 33%
    04:00 +34°C° 0 mm 4 mps 732 mmHg 35%
    05:00 +34°C° 0 mm 4 mps 732 mmHg 36%
    06:00 +34°C° 0 mm 4 mps 733 mmHg 35%
    07:00 +35°C° 0 mm 4 mps 733 mmHg 34%
    08:00 +36°C° 0 mm 5 mps 734 mmHg 32%
    09:00 +37°C° 0 mm 5 mps 734 mmHg 30%
    10:00 +40°C° 0 mm 4 mps 734 mmHg 28%
    11:00 +41°C° 0 mm 4 mps 734 mmHg 26%
    12:00 +42°C° 0 mm 3 mps 733 mmHg 22%
    13:00 +43°C° 0 mm 2 mps 732 mmHg 19%
    14:00 +44°C° 0 mm 1 mps 732 mmHg 16%
    15:00 +45°C° 0 mm 2 mps 731 mmHg 16%
    16:00 +43°C° 0 mm 2 mps 731 mmHg 15%
    17:00 +43°C° 0 mm 2 mps 730 mmHg 15%
    18:00 +42°C° 0 mm 3 mps 731 mmHg 20%
    19:00 +39°C° 0 mm 3 mps 731 mmHg 24%
    20:00 +37°C° 0 mm 4 mps 731 mmHg 29%
    21:00 +36°C° 0.3 mm 3 mps 732 mmHg 31%
    22:00 +35°C° 0.3 mm 3 mps 733 mmHg 33%
    23:00 +34°C° 0.3 mm 2 mps 733 mmHg 35%

    31 May, Sunday

    Time Temperature Precipitation Wind Pressure Humidity
    00:00 +34°C° 0.1 mm 2 mps 733 mmHg 35%
    01:00 +34°C° 0.1 mm 3 mps 733 mmHg 35%
    02:00 +34°C° 0.1 mm 3 mps 732 mmHg 36%
    03:00 +33°C° 0.7 mm 3 mps 733 mmHg 38%
    04:00 +32°C° 0.7 mm 2 mps 733 mmHg 40%
    05:00 +31°C° 0.7 mm 2 mps 733 mmHg 43%
    06:00 +32°C° 0.7 mm 2 mps 734 mmHg 41%
    07:00 +34°C° 0.7 mm 2 mps 734 mmHg 40%
    08:00 +34°C° 0.7 mm 2 mps 735 mmHg 38%
    09:00 +36°C° 0.3 mm 2 mps 735 mmHg 35%
    10:00 +37°C° 0.3 mm 3 mps 735 mmHg 32%
    11:00 +39°C° 0.3 mm 3 mps 734 mmHg 29%
    12:00 +40°C° 0 mm 2 mps 734 mmHg 26%
    13:00 +41°C° 0 mm 2 mps 733 mmHg 24%
    14:00 +43°C° 0 mm 2 mps 732 mmHg 21%
    15:00 +42°C° 0.5 mm 4 mps 732 mmHg 24%
    16:00 +39°C° 0.5 mm 5 mps 731 mmHg 26%
    17:00 +36°C° 0.5 mm 7 mps 731 mmHg 29%
    18:00 +35°C° 0.4 mm 7 mps 731 mmHg 35%
    19:00 +34°C° 0.4 mm 7 mps 731 mmHg 40%
    20:00 +33°C° 0.4 mm 8 mps 731 mmHg 46%
    21:00 +34°C° 0.3 mm 5 mps 732 mmHg 42%
    22:00 +35°C° 0.3 mm 3 mps 732 mmHg 38%
    23:00 +34°C° 0.3 mm 1 mps 733 mmHg 34%
    Show more